Lid_Strength_Index
8 11 13 10 10 10 11 11 12 12 11 11 11 10 9 8 8 8 7 8 8 7 6 5 5 3 2 2 2 2 1 0 0 1 1 1 2 2 2 1 1 1 1 2
10 13 9 8 8 9 11 13 13 11 10 11 11 11 10 9 8 10 10 10 10 9 8 7 6 5 4 4 3 3 2 1 1 1 1 1 1 1 1 1 2 2 1 1
12 10 8 9 10 11 11 12 12 13 11 11 11 12 11 11 10 11 11 11 10 10 9 8 7 6 5 4 4 4 3 1 0 0 0 0 0 1 2 1 1 1 1 1
11 8 10 10 11 10 13 9 10 11 12 15 11 16 13 12 13 13 13 12 11 10 8 6 4 5 4 3 3 3 2 1 0 1 1 1 2 3 2 1 1 1 1 1
11 10 11 12 11 9 11 8 10 10 13 13 13 15 12 12 14 14 14 13 12 10 8 7 7 3 2 2 2 2 2 1 1 1 1 1 2 1 1 1 1 1 1 0
10 7 8 10 8 8 9 11 10 11 14 19 14 14 14 14 17 15 14 13 13 11 10 9 8 6 3 2 2 2 2 2 1 1 1 1 1 1 1 1 1 1 2 1
11 12 9 8 11 9 10 14 18 20 20 18 13 14 16 16 16 16 15 14 13 12 11 11 11 9 7 4 2 3 2 2 1 1 1 1 1 1 1 1 1 1 2 2
17 17 15 12 10 12 13 13 16 20 20 17 14 16 18 16 15 14 15 14 14 14 13 12 12 11 9 8 5 2 3 3 2 2 2 1 1 1 1 1 1 1 1 2
19 17 13 13 13 12 14 16 10 14 14 15 16 18 16 15 15 15 16 16 15 15 14 13 12 12 11 9 7 6 2 2 2 2 2 2 2 1 1 1 0 1 1 2
15 19 14 14 13 13 13 10 16 15 20 20 18 19 19 18 18 17 17 17 16 15 14 14 13 12 12 11 9 6 6 4 1 1 1 1 2 2 2 2 2 2 2 3
13 16 17 15 18 20 17 17 15 13 15 17 20 21 17 19 18 18 18 17 16 16 15 14 13 12 12 11 10 9 7 6 5 1 2 2 2 2 3 3 3 3 3 3
12 15 19 19 15 15 18 19 19 17 18 17 16 22 18 18 17 17 17 17 16 15 14 14 13 12 12 12 12 11 10 7 6 5 1 2 2 2 3 3 4 3 3 4
11 15 19 19 16 16 20 20 20 17 16 22 19 24 18 18 18 17 17 16 16 15 15 14 14 13 12 12 12 12 10 9 7 6 4 2 2 2 3 3 3 5 5 5
9 14 17 22 22 20 22 21 20 20 20 22 23 24 22 20 19 18 17 16 16 15 15 15 14 14 13 13 13 12 11 10 8 7 4 2 2 3 3 2 3 4 5 6
10 17 17 18 19 20 22 22 21 22 21 22 22 25 23 22 20 19 17 17 17 17 16 16 15 15 14 13 13 13 12 11 10 7 5 3 2 2 3 2 3 4 5 6
9 15 16 19 18 20 23 22 21 22 22 22 21 23 20 19 19 19 18 18 17 17 17 16 15 14 14 14 13 13 12 11 10 7 6 4 2 2 3 3 2 3 4 5
12 12 15 20 17 18 23 22 21 22 21 22 26 23 20 21 20 20 19 18 18 18 17 16 15 14 13 13 12 13 12 11 9 8 6 4 2 2 2 2 3 2 3 4
15 12 13 16 17 26 20 18 19 21 20 20 21 21 20 20 19 18 17 18 18 17 17 16 15 14 12 12 12 12 12 11 9 6 6 5 4 2 2 3 3 3 3 4
13 14 16 18 20 20 19 19 20 22 22 19 21 19 20 19 18 17 17 17 17 17 16 15 14 13 12 11 11 12 12 11 8 6 6 5 4 3 3 3 3 2 2 2
13 13 14 17 21 23 20 16 15 17 22 18 19 20 20 19 22 20 17 16 16 16 15 15 14 13 12 11 10 12 12 11 9 5 5 5 4 4 5 4 3 3 2 3
19 18 19 18 20 20 16 15 14 22 22 17 17 18 19 20 19 17 15 15 15 15 15 14 14 14 12 11 11 12 12 12 9 5 5 5 5 5 6 5 5 5 4 5
21 21 20 19 21 24 15 16 20 18 16 16 16 16 17 17 17 16 16 16 15 15 15 14 14 13 11 11 12 12 12 11 7 5 5 5 6 6 6 7 6 6 6 6
21 20 20 19 19 16 14 16 15 15 16 16 16 15 15 16 16 16 16 16 16 15 15 15 14 13 13 12 10 10 10 8 7 6 6 6 6 7 7 7 8 8 7 7
17 16 18 18 16 17 16 15 15 15 16 16 16 16 15 16 15 15 15 15 15 15 15 15 14 14 14 14 13 13 12 8 7 7 7 7 7 7 7 7 7 8 8 8
18 17 19 19 17 16 15 15 16 16 16 17 17 16 16 16 16 15 15 14 13 13 14 14 14 15 15 15 14 14 13 12 8 8 8 7 7 7 8 8 7 7 7 8
17 19 19 19 18 18 17 15 15 17 17 17 18 18 17 16 16 15 15 14 13 14 13 13 14 15 15 15 15 14 13 13 9 9 8 7 8 8 8 8 9 7 7 7